User: anonymous   Login
Location: Unspecified
(0.0000°N, 0.0000°E)
Time: 01:58:37
(UTC+00:00)
Language:

Uosat F - Orbit

View from above orbital plane
View from above orbital plane
View from above satellite
View from above satellite

Ground track
Ground track

The orbit data is extracted from the following two-line orbital elements,

1 21575U 91050B   17324.95761605 +.00000028 +00000-0 +23063-4 0  9999
2 21575 098.7489 345.0431 0007170 185.2341 174.8773 14.40822383383653
Epoch (UTC): 20 November 2017 22:58:58
Eccentricity: 0.0007170
inclination: 98.7489°
perigee height: 750 km
apogee height: 761 km
right ascension of ascending node: 345.0431°
argument of perigee: 185.2341°
revolutions per day: 14.40822383
mean anomaly at epoch: 174.8773°
orbit number at epoch: 38365

The dashed part of the orbit path shows where the satellite is in the earth's shadow,  

DLR